Preview of NWS' New Version of Forecast
This preview is not operational and should not be used for support decisions.

Regional Weather Roundup (RWR)

Issued by National Weather Service (NWS)

                            
000
ASUS44 KMEG 180900
RWRTN 
TENNESSEE HOURLY STATE WEATHER ROUNDUP
NATIONAL WEATHER SERVICE MEMPHIS TN
400 AM CDT THU JUL 18 2019

TNZ002-004-019-021-049-052-054-088>092-181000-
WEST TENNESSEE
  
CITY           SKY/WX    TMP DP  RH WIND       PRES   REMARKS
MEMPHIS INTL   CLOUDY    79  77  94 S10       30.01F                  
NWS MEMPHIS      N/A     78 N/A N/A MISG        N/A                   
JACKSON        FAIR      74  74 100 S6        29.99F                  
DYERSBURG      FAIR      74  73  97 S6        29.97F                  
HUNTINGDON     PTCLDY    73  72  94 SW10      29.95F                  
LEXINGTON      CLEAR     73  72  94 S7        29.98F                  
SELMER         PTCLDY    75  73  94 CALM      30.01F                  
$$

TNZ008-025-027-028-033-062-065-066-181000-
NORTH MIDDLE TENNESSEE
  
CITY           SKY/WX    TMP DP  RH WIND       PRES   REMARKS
NASHVILLE      MOCLDY    75  69  81 S10       29.99S                  
CLARKSVILLE    FAIR      72  71  97 SW3       29.98R                  
SMYRNA         FAIR      74  71  91 S7        30.00F                  
MURFREESBORO   SUNNY     75  70  83 SW8G15    29.99S                  
COOKEVILLE     PTCLDY    73  73 100 S6        30.02R                  
LIVINGSTON     PTSUNNY   73  73 100 SW9       30.01S                  
CROSSVILLE     FAIR      72  70  93 VRB3      30.07S                  
$$

TNZ061-075-076-078-094-096-097-181000-
SOUTH MIDDLE TENNESSEE
  
CITY           SKY/WX    TMP DP  RH WIND       PRES   REMARKS
LEWISBURG      SUNNY     73  72  94 CALM      30.02F                  
FAYETTEVILLE   CLEAR     72  70  94 SW5       30.04F                  
WINCHESTER     PTCLDY    73  70  88 CALM      30.05F                  
$$

TNZ017-018-042-046-047-181000-
NORTHEAST TENNESSEE
  
CITY           SKY/WX    TMP DP  RH WIND       PRES   REMARKS
TRI CITIES     CLOUDY    73  70  90 SW5       30.04F                  
$$

TNZ012-013-036-069-073-074-181000-
CENTRAL EAST TENNESSEE
  
CITY           SKY/WX    TMP DP  RH WIND       PRES   REMARKS
KNOXVILLE      CLOUDY    75  72  90 SW7       30.01S                  
OAK RIDGE      CLOUDY    76  73  91 W3        30.03S                  
MORRISTOWN     CLOUDY    75  73  94 W8        30.02S                  
$$

TNZ083-085-099-181000-
SOUTHEAST TENNESSEE
  
CITY           SKY/WX    TMP DP  RH WIND       PRES   REMARKS
CHATTANOOGA    FAIR      77  73  87 SW3       30.03S                  
$$

SKY/WX REPORTED AS FAIR MEANS FEW OR NO CLOUDS BELOW
12 THOUSAND FEET.